• en France
  • Liste des pays
  • À 7 jours
  • Température de l'eau
  • Carte satellitaire
  • Carte météo
  • Widgets météo
  • user-avatar
    Se connecter

    Météo par heure à Sopron

    Ce jour, 21 Janvier, Dimanche

    Heure Température Précipitation Vent Pression Humidité
    00:00 -1°C° 0 mm 4 m/s 735 mmHg 83%
    01:00 -1°C° 0 mm 4 m/s 735 mmHg 81%
    02:00 -1°C° 0 mm 4 m/s 734 mmHg 83%
    03:00 0°C° 0 mm 3 m/s 734 mmHg 84%
    04:00 -1°C° 0 mm 2 m/s 733 mmHg 86%
    05:00 -1°C° 0 mm 2 m/s 733 mmHg 86%
    06:00 -1°C° 0 mm 2 m/s 734 mmHg 86%
    07:00 -1°C° 0 mm 2 m/s 734 mmHg 87%
    08:00 0°C° 0 mm 3 m/s 734 mmHg 85%
    09:00 0°C° 0 mm 4 m/s 735 mmHg 83%
    10:00 0°C° 0 mm 5 m/s 736 mmHg 81%
    11:00 0°C° 0,1 mm 5 m/s 736 mmHg 80%
    12:00 +1°C° 0,1 mm 5 m/s 737 mmHg 80%
    13:00 +1°C° 0,1 mm 5 m/s 738 mmHg 79%
    14:00 +1°C° 0,2 mm 5 m/s 738 mmHg 80%
    15:00 0°C° 0,2 mm 5 m/s 739 mmHg 81%
    16:00 0°C° 0,2 mm 5 m/s 740 mmHg 81%
    17:00 -1°C° 0,1 mm 6 m/s 741 mmHg 82%
    18:00 -2°C° 0,1 mm 6 m/s 742 mmHg 82%
    19:00 -2°C° 0,1 mm 6 m/s 743 mmHg 82%
    20:00 -2°C° 0 mm 6 m/s 744 mmHg 81%
    21:00 -3°C° 0 mm 6 m/s 744 mmHg 80%
    22:00 -3°C° 0 mm 6 m/s 745 mmHg 80%
    23:00 -3°C° 0 mm 6 m/s 745 mmHg 80%

    Demain, 22 Janvier, Lundi

    Heure Température Précipitation Vent Pression Humidité
    00:00 -4°C° 0 mm 5 m/s 746 mmHg 81%
    01:00 -4°C° 0 mm 5 m/s 746 mmHg 82%
    02:00 -3°C° 0 mm 4 m/s 746 mmHg 83%
    03:00 -4°C° 0 mm 3 m/s 746 mmHg 83%
    04:00 -4°C° 0 mm 3 m/s 746 mmHg 84%
    05:00 -3°C° 0 mm 2 m/s 746 mmHg 83%
    06:00 -3°C° 0 mm 2 m/s 745 mmHg 82%
    07:00 -1°C° 0 mm 1 m/s 745 mmHg 82%
    08:00 0°C° 0 mm 1 m/s 745 mmHg 79%
    09:00 +1°C° 0 mm 1 m/s 746 mmHg 76%
    10:00 +1°C° 0 mm 1 m/s 746 mmHg 73%
    11:00 +2°C° 0 mm 1 m/s 745 mmHg 70%
    12:00 +2°C° 0 mm 1 m/s 745 mmHg 67%
    13:00 +3°C° 0 mm 1 m/s 744 mmHg 64%
    14:00 +3°C° 0 mm 1 m/s 744 mmHg 67%
    15:00 +2°C° 0 mm 2 m/s 744 mmHg 70%
    16:00 +1°C° 0 mm 2 m/s 744 mmHg 73%
    17:00 +1°C° 0 mm 2 m/s 744 mmHg 74%
    18:00 -1°C° 0 mm 2 m/s 745 mmHg 76%
    19:00 -1°C° 0 mm 2 m/s 745 mmHg 78%
    20:00 -1°C° 0,1 mm 2 m/s 746 mmHg 79%
    21:00 -1°C° 0,1 mm 2 m/s 746 mmHg 79%
    22:00 +1°C° 0,1 mm 2 m/s 747 mmHg 80%
    23:00 +1°C° 0,2 mm 2 m/s 747 mmHg 82%

    Après-demain, 23 Janvier, Mardi

    Heure Température Précipitation Vent Pression Humidité
    00:00 +1°C° 0,2 mm 2 m/s 747 mmHg 84%
    01:00 +1°C° 0,2 mm 2 m/s 747 mmHg 86%
    02:00 +1°C° 0,1 mm 2 m/s 747 mmHg 87%
    03:00 +1°C° 0,1 mm 2 m/s 748 mmHg 88%
    04:00 +1°C° 0,1 mm 2 m/s 748 mmHg 89%
    05:00 +1°C° 0,2 mm 2 m/s 749 mmHg 90%
    06:00 +1°C° 0,2 mm 2 m/s 749 mmHg 91%
    07:00 +1°C° 0,2 mm 2 m/s 750 mmHg 91%
    08:00 +2°C° 0,1 mm 2 m/s 750 mmHg 89%
    09:00 +2°C° 0,1 mm 2 m/s 751 mmHg 87%
    10:00 +3°C° 0,1 mm 2 m/s 752 mmHg 86%
    11:00 +4°C° 0,1 mm 2 m/s 752 mmHg 84%
    12:00 +3°C° 0,1 mm 3 m/s 752 mmHg 82%
    13:00 +4°C° 0,1 mm 3 m/s 752 mmHg 81%
    14:00 +4°C° 0 mm 2 m/s 753 mmHg 83%
    15:00 +4°C° 0 mm 2 m/s 753 mmHg 85%
    16:00 +5°C° 0 mm 1 m/s 753 mmHg 88%
    17:00 +4°C° 0 mm 1 m/s 754 mmHg 89%
    18:00 +3°C° 0 mm 1 m/s 754 mmHg 91%
    19:00 +2°C° 0 mm 1 m/s 755 mmHg 92%
    20:00 +2°C° 0 mm 1 m/s 755 mmHg 92%
    21:00 +2°C° 0 mm 1 m/s 755 mmHg 93%
    22:00 +1°C° 0 mm 1 m/s 756 mmHg 93%
    23:00 +1°C° 0 mm 1 m/s 756 mmHg 93%

    24 Janvier, Mercredi

    Heure Température Précipitation Vent Pression Humidité
    00:00 -1°C° 0 mm 2 m/s 756 mmHg 93%
    01:00 -1°C° 0 mm 2 m/s 756 mmHg 93%
    02:00 -1°C° 0 mm 2 m/s 756 mmHg 93%
    03:00 -1°C° 0 mm 2 m/s 756 mmHg 93%
    04:00 -1°C° 0 mm 2 m/s 756 mmHg 93%
    05:00 -1°C° 0 mm 2 m/s 756 mmHg 93%
    06:00 -1°C° 0 mm 2 m/s 756 mmHg 93%
    07:00 -1°C° 0 mm 2 m/s 756 mmHg 93%
    08:00 0°C° 0 mm 3 m/s 756 mmHg 90%
    09:00 +1°C° 0 mm 3 m/s 756 mmHg 87%
    10:00 +2°C° 0 mm 3 m/s 756 mmHg 84%
    11:00 +3°C° 0 mm 3 m/s 756 mmHg 82%
    12:00 +4°C° 0 mm 3 m/s 755 mmHg 80%
    13:00 +5°C° 0 mm 4 m/s 755 mmHg 78%
    14:00 +4°C° 0 mm 4 m/s 755 mmHg 81%
    15:00 +4°C° 0 mm 3 m/s 755 mmHg 83%
    16:00 +3°C° 0 mm 3 m/s 755 mmHg 85%
    17:00 +2°C° 0 mm 3 m/s 755 mmHg 87%
    18:00 +1°C° 0 mm 3 m/s 755 mmHg 88%
    19:00 +1°C° 0 mm 3 m/s 755 mmHg 90%
    20:00 -1°C° 0 mm 4 m/s 755 mmHg 89%
    21:00 -1°C° 0 mm 4 m/s 755 mmHg 89%
    22:00 -1°C° 0 mm 4 m/s 754 mmHg 89%
    23:00 -1°C° 0 mm 4 m/s 754 mmHg 88%

    25 Janvier, Jeudi

    Heure Température Précipitation Vent Pression Humidité
    00:00 -1°C° 0 mm 4 m/s 754 mmHg 88%
    01:00 -2°C° 0 mm 4 m/s 754 mmHg 88%
    02:00 -2°C° 0 mm 4 m/s 753 mmHg 87%
    03:00 -2°C° 0 mm 4 m/s 753 mmHg 87%
    04:00 -1°C° 0 mm 3 m/s 752 mmHg 87%
    05:00 -1°C° 0 mm 3 m/s 752 mmHg 86%
    06:00 -1°C° 0 mm 3 m/s 752 mmHg 86%
    07:00 -1°C° 0 mm 3 m/s 752 mmHg 86%
    08:00 -1°C° 0 mm 3 m/s 752 mmHg 83%
    09:00 0°C° 0 mm 3 m/s 751 mmHg 80%
    10:00 0°C° 0 mm 4 m/s 751 mmHg 77%
    11:00 +2°C° 0 mm 3 m/s 751 mmHg 75%
    12:00 +3°C° 0 mm 3 m/s 750 mmHg 73%
    13:00 +4°C° 0 mm 3 m/s 750 mmHg 71%
    14:00 +3°C° 0 mm 3 m/s 750 mmHg 74%
    15:00 +3°C° 0 mm 3 m/s 749 mmHg 77%
    16:00 +3°C° 0 mm 2 m/s 749 mmHg 80%
    17:00 +1°C° 0 mm 3 m/s 749 mmHg 82%
    18:00 +1°C° 0 mm 3 m/s 749 mmHg 84%
    19:00 0°C° 0 mm 3 m/s 749 mmHg 86%
    20:00 -1°C° 0 mm 3 m/s 749 mmHg 86%
    21:00 -1°C° 0 mm 3 m/s 749 mmHg 86%
    22:00 -1°C° 0 mm 3 m/s 749 mmHg 86%
    23:00 -1°C° 0 mm 3 m/s 749 mmHg 86%

    26 Janvier, Vendredi

    Heure Température Précipitation Vent Pression Humidité
    00:00 -1°C° 0 mm 3 m/s 748 mmHg 85%
    01:00 -1°C° 0 mm 3 m/s 748 mmHg 84%
    02:00 -1°C° 0 mm 3 m/s 748 mmHg 84%
    03:00 -1°C° 0 mm 3 m/s 748 mmHg 83%
    04:00 -1°C° 0 mm 3 m/s 748 mmHg 82%
    05:00 -1°C° 0 mm 3 m/s 748 mmHg 82%
    06:00 0°C° 0 mm 3 m/s 748 mmHg 81%
    07:00 0°C° 0 mm 3 m/s 748 mmHg 81%
    08:00 0°C° 0 mm 3 m/s 748 mmHg 80%
    09:00 0°C° 0 mm 3 m/s 748 mmHg 79%
    10:00 0°C° 0 mm 4 m/s 748 mmHg 78%
    11:00 0°C° 0 mm 4 m/s 748 mmHg 77%
    12:00 +1°C° 0 mm 4 m/s 748 mmHg 76%
    13:00 +1°C° 0 mm 4 m/s 748 mmHg 75%
    14:00 +2°C° 0 mm 3 m/s 748 mmHg 76%
    15:00 +2°C° 0 mm 3 m/s 748 mmHg 77%
    16:00 +2°C° 0 mm 3 m/s 748 mmHg 78%
    17:00 +3°C° 0 mm 2 m/s 748 mmHg 79%
    18:00 +2°C° 0 mm 2 m/s 749 mmHg 79%
    19:00 +2°C° 0 mm 2 m/s 749 mmHg 80%
    20:00 +1°C° 0 mm 2 m/s 749 mmHg 80%
    21:00 +1°C° 0 mm 2 m/s 750 mmHg 81%
    22:00 +1°C° 0 mm 2 m/s 750 mmHg 82%
    23:00 +2°C° 0 mm 1 m/s 750 mmHg 83%
    Voir plus